St. Joseph, KS

7:06 PM CST on December 05, 2019 (GMT -0600)
Rosecrans Memorial

Weather History for KSTJ - November, 2019

Change the Weather History Date:

Tuesday, November 12, 2019

  Actual Average Record
Temperature  
Mean Temperature 16 °F 44 °F  
Max Temperature 26 °F 55 °F 78 °F (2005)
Min Temperature 5 °F 33 °F 5 °F (1911)
Degree Days  
Heating Degree Days 49 21  
Month to date heating degree days 317 225  
Since 1 July heating degree days 766 644  
Cooling Degree Days 0 0  
Month to date cooling degree days 0 0  
Year to date cooling degree days 1466 1220  
Moisture  
Dew Point 6 °F    
Average Humidity 62    
Maximum Humidity 79    
Minimum Humidity 44    
Precipitation  
Precipitation 0.00 in 0.04 in 1.46 in (1997)
Month to date precipitation 0.00 0.79  
Year to date precipitation 36.89 33.32  
Sea Level Pressure  
Sea Level Pressure 30.55 in    
Wind  
Wind Speed 9 mph (SSW)    
Max Wind Speed 22 mph    
Max Gust Speed 29 mph    
Visibility 10 miles    
Events      
T = Trace of Precipitation, MM = Missing Value Source: NWS Daily Summary

Daily Weather History Graph

Daily Weather History Graph

Search for Another Location

Airport or City:

Astronomy

Nov. 12, 2019 Rise Set
Actual Time 7:00 AM CST 5:06 PM CST
Civil Twilight 6:31 AM CST 5:35 PM CST
Nautical Twilight 5:59 AM CST 6:07 PM CST
Astronomical Twilight 5:27 AM CST 6:39 PM CST
Moon 5:33 PM CST (11/12) 6:53 AM CST (11/12)
Length of Visible Light 11h 03m
Length of Day
10h 05m
Full, 100% of the Moon is Illuminated
Nov 12
Full
Nov 19
Last Quarter
Nov 26
New
Dec 4
First Quarter
Dec 11
Full

Hourly Weather History & Observations

Time (CST) Temp. Windchill Dew Point Humidity Pressure Visibility Wind Dir Wind Speed Gust Speed Precip Events Conditions
12:53 AM 9.0 °F -2.2 °F 1.9 °F 73% 30.75 in 10.0 mi NNW 6.9 mph - N/A   Clear
1:53 AM 10.0 °F 0.4 °F 3.0 °F 73% 30.75 in 10.0 mi NNW 5.8 mph - N/A   Clear
2:53 AM 9.0 °F -2.2 °F 1.9 °F 73% 30.74 in 10.0 mi North 6.9 mph - N/A   Clear
3:53 AM 8.1 °F - 3.0 °F 80% 30.73 in 10.0 mi Calm Calm - N/A   Clear
4:53 AM 7.0 °F 0.1 °F 1.0 °F 77% 30.72 in 10.0 mi NW 3.5 mph - N/A   Clear
5:53 AM 7.0 °F -3.3 °F 1.0 °F 77% 30.73 in 10.0 mi NW 5.8 mph - N/A   Clear
6:53 AM 6.1 °F -2.8 °F -0.0 °F 76% 30.73 in 10.0 mi NNW 4.6 mph - N/A   Clear
7:53 AM 9.0 °F - 3.0 °F 77% 30.72 in 10.0 mi Calm Calm - N/A   Clear
8:53 AM 12.9 °F - 3.0 °F 65% 30.71 in 10.0 mi Calm Calm - N/A   Clear
9:53 AM 15.1 °F 6.4 °F 3.9 °F 61% 30.70 in 10.0 mi SSW 5.8 mph - N/A   Clear
10:53 AM 17.1 °F - 3.9 °F 56% 30.69 in 10.0 mi North - - N/A   Clear
11:53 AM 19.0 °F 10.0 °F 3.9 °F 52% 30.63 in 10.0 mi South 6.9 mph - N/A   Clear
12:53 PM 21.9 °F 13.4 °F 6.1 °F 51% 30.57 in 10.0 mi SSE 6.9 mph - N/A   Clear
1:53 PM 25.0 °F 14.2 °F 6.1 °F 45% 30.51 in 10.0 mi South 11.5 mph - N/A   Clear
2:53 PM 26.1 °F 15.6 °F 7.0 °F 44% 30.49 in 10.0 mi South 11.5 mph - N/A   Clear
3:53 PM 25.0 °F 13.1 °F 8.1 °F 49% 30.46 in 10.0 mi South 13.8 mph 19.6 mph N/A   Clear
4:53 PM 24.1 °F 13.1 °F 9.0 °F 53% 30.44 in 10.0 mi South 11.5 mph - N/A   Clear
5:53 PM 21.9 °F 10.4 °F 10.0 °F 60% 30.40 in 10.0 mi SSE 11.5 mph - N/A   Clear
6:53 PM 21.9 °F 10.4 °F 10.9 °F 63% 30.36 in 10.0 mi South 11.5 mph - N/A   Clear
7:53 PM 21.9 °F 9.8 °F 12.0 °F 66% 30.32 in 10.0 mi South 12.7 mph - N/A   Clear
8:53 PM 23.0 °F 10.1 °F 12.0 °F 63% 30.29 in 10.0 mi South 15.0 mph 26.5 mph N/A   Clear
9:53 PM 23.0 °F 10.1 °F 12.0 °F 63% 30.29 in 10.0 mi South 15.0 mph 21.9 mph N/A   Clear
10:53 PM 23.0 °F 8.7 °F 12.0 °F 63% 30.25 in 10.0 mi South 18.4 mph - N/A   Clear
11:53 PM 23.0 °F 10.1 °F 10.9 °F 60% 30.22 in 10.0 mi South 15.0 mph - N/A   Clear